Find Starlink 11388

NORAD ID: 62092 Int'l Des: 2024-220 Owner: SPXS Country: US Constellation: starlink operational
LEOCIRCULAR

当前视图

正在加载3D地球...

About Starlink 11388

Starlink 11388 (NORAD 62092) is a starlink constellation satellite (v2 mini d2c) launched Nov 25, 2024 by SPXS of US. It operates in LEO, CIRCULAR orbit with a mass of 960.00 kg.

关于 Starlink 11388

正在加载描述...

即将过境

Passes for default location (London). Set your location on the main map for personalized predictions.

高度历史

Loading altitude history...

两行轨道根数

1 62092U 24220E 26171.41668980 -.00013770 00000-0 -10406-3 0 9992
2 62092 43.0006 143.9484 0001611 259.9892 278.8182 15.70823936 6017
Epoch: Jun 20, 2026 • Age: 36 hours

当前状态

高度 356.0 km
速度 7.70 km/s
星下点 12.90°N, 90.27°W
发射日期 Nov 25, 2024
运行时间 1.5 years
类型 internet

技术详情

分类 Payload
质量 960.00 kg
干质量 910.00 kg
总质量 960.00 kg
长度 0.30 m
直径 4.10 m
跨度 29.00 m
形状 Box + pan
制造商 SPXS
平台类型 Starlink V2MD
阶段状态 In Orbit
所有者/国家 SPXS/US

Most Searched